This is the latest recevied weather packets stored in our database for station/object WA4IKQ. If no packets are shown the sender has not sent any weather packets the latest 10 day(s).
| Time | Temp. | Humidity | Pressure | Rain* | Wind** | Luminosity | Snow |
|---|---|---|---|---|---|---|---|
| 1778079708 | 29.44° C | 55% | 1017.4 hPa | 0 mm | 0 m/s | - | - |
| 1778079443 | 28.89° C | 55% | 1017.4 hPa | 0 mm | 3.13 m/s, 170° | - | - |
| 1778079343 | 28.89° C | 55% | 1017.4 hPa | 0 mm | 3.13 m/s, 170° | - | - |
| 1778079132 | 28.89° C | 57% | 1017.4 hPa | 0 mm | 1.34 m/s, 155° | - | - |
| 1778079043 | 28.89° C | 57% | 1017.4 hPa | 0 mm | 1.34 m/s, 155° | - | - |
| 1778078850 | 28.89° C | 58% | 1017.3 hPa | 0 mm | 0.89 m/s, 113° | - | - |
| 1778078743 | 28.89° C | 58% | 1017.3 hPa | 0 mm | 0.89 m/s, 113° | - | - |
| 1778078584 | 28.33° C | 60% | 1017.3 hPa | 0 mm | 0 m/s | - | - |
| 1778078292 | 28.33° C | 61% | 1017.3 hPa | 0 mm | 2.24 m/s, 89° | - | - |
| 1778077627 | 27.78° C | 62% | 1017.2 hPa | 0 mm | 3.13 m/s, 158° | - | - |
| 1778077334 | 27.22° C | 65% | 1017.3 hPa | 0 mm | 3.13 m/s, 108° | - | - |
| 1778077242 | 27.22° C | 65% | 1017.3 hPa | 0 mm | 3.13 m/s, 108° | - | - |
| 1778077074 | 27.22° C | 66% | 1017.2 hPa | 0 mm | 0.89 m/s, 215° | - | - |
| 1778076950 | 27.22° C | 66% | 1017.2 hPa | 0 mm | 0.89 m/s, 215° | - | - |
| 1778076783 | 27.22° C | 67% | 1017.2 hPa | 0 mm | 1.79 m/s, 108° | - | - |
| 1778076643 | 27.22° C | 67% | 1017.2 hPa | 0 mm | 1.79 m/s, 108° | - | - |
| 1778076474 | 26.67° C | 69% | 1017.2 hPa | 0 mm | 0.89 m/s, 77° | - | - |
| 1778076343 | 26.67° C | 69% | 1017.2 hPa | 0 mm | 0.89 m/s, 77° | - | - |
| 1778075936 | 26.67° C | 72% | 1017.1 hPa | 0 mm | 2.68 m/s, 141° | - | - |
| 1778075890 | 26.67° C | 72% | 1017.1 hPa | 0 mm | 2.68 m/s, 141° | - | - |
| 1778075752 | 26.67° C | 72% | 1017.1 hPa | 0 mm | 2.68 m/s, 141° | - | - |
| 1778075524 | 26.11° C | 74% | 1017 hPa | 0 mm | 1.79 m/s, 58° | - | - |
| 1778075441 | 26.11° C | 74% | 1017 hPa | 0 mm | 1.79 m/s, 58° | - | - |
| 1778075294 | 25.56° C | 75% | 1017.1 hPa | 0 mm | 2.68 m/s, 146° | - | - |
| 1778074682 | 25° C | 78% | 1017 hPa | 0 mm | 0.45 m/s, 80° | - | - |
* Rain latest hour (hover to see other rain measurements)
** Current wind speed in m/s (hover to see current wind gust speed)